This demonstration page uses our WeatherBlox Daily Observations layout. Learn more.

Left ArrowRight Arrow

Hourly Observations for July 26, 2015

Temp ( °F °C ) Dew Point ( °F °C ) Humidity (%) Winds ( mph kmh ) Pressure ( in mb ) Visibility ( mi km ) Precip ( " mm )
12:51 am 00:51 Clear 74 23.3 59 15 60 60 NW 8 13 29.96 1015 10 16.0934 N/A
1:51 am 01:51 Clear 82 27.8 39 3.9 22 22 NNW 5 7 29.71 1006 10 16.0934 N/A
2:51 am 02:51 Clear 78 25.6 41 5 27 27 W 5 7 29.72 1007 10 16.0934 N/A
3:51 am 03:51 Clear 75 23.9 42 5.6 31 31 SE 5 7 29.74 1007 10 16.0934 N/A
4:51 am 04:51 Clear 76 24.4 44 6.7 32 32 SE 7 11 29.76 1008 10 16.0934 N/A
5:51 am 05:51 Sunny 73 22.8 47 8.3 40 40 SSE 3 6 29.78 1009 10 16.0934 N/A
6:51 am 06:51 Sunny 77 25 51 10.6 40 40 SE 9 15 29.79 1009 10 16.0934 N/A
7:51 am 07:51 Mostly Sunny 83 28.3 56 13.3 40 40 ESE 9 15 29.81 1010 10 16.0934 N/A
8:51 am 08:51 Sunny 88 31.1 51 10.6 28 28 E 6 9 29.8 1009 10 16.0934 N/A
9:51 am 09:51 Sunny 91 32.8 45 7.2 20 20 N N/A 29.79 1009 10 16.0934 N/A
10:51 am 10:51 Sunny 96 35.6 39 3.9 14 14 W 6 9 29.78 1008 10 16.0934 N/A
11:51 am 11:51 Sunny 99 37.2 37 2.8 12 12 W 14 22 29.75 1008 10 16.0934 N/A
12:51 pm 12:51 Sunny 101 38.3 34 1.1 10 10 W 18 30 29.71 1006 10 16.0934 N/A
1:51 pm 13:51 Sunny 102 38.9 37 2.8 10 10 WNW 17 28 29.68 1005 10 16.0934 N/A
2:51 pm 14:51 Sunny 103 39.4 39 3.9 11 11 WNW 15 24 29.66 1004 10 16.0934 N/A
3:51 pm 15:51 Mostly Sunny 102 38.9 38 3.3 11 11 WNW 15 24 29.64 1004 10 16.0934 N/A
4:51 pm 16:51 Mostly Sunny 99 37.2 39 3.9 12 12 WNW 20 31 29.65 1004 10 16.0934 N/A
5:51 pm 17:51 Mostly Sunny 100 37.8 41 5 13 13 WNW 20 31 29.64 1004 10 16.0934 N/A
6:51 pm 18:51 Sunny 97 36.1 40 4.4 14 14 WNW 16 26 29.66 1005 10 16.0934 N/A
7:51 pm 19:51 Clear 92 33.3 37 2.8 14 14 WNW 13 20 29.69 1005 10 16.0934 N/A
8:51 pm 20:51 Clear 86 30 72 22.2 63 63 NW 13 20 29.85 1011 10 16.0934 N/A
9:51 pm 21:51 Clear 86 30 34 1.1 15 15 NW 9 15 29.72 1007 10 16.0934 N/A
10:51 pm 22:51 Clear 85 29.4 33 0.6 15 15 NW 9 15 29.72 1007 10 16.0934 N/A
11:51 pm 23:51 Clear 82 27.8 34 1.1 18 18 NW 7 11 29.72 1007 10 16.0934 N/A

Powered by AerisWeather